Content
SEND FEEDBACK

Daily
Averages
Monthly
Summary
United Kingdom

LONDON, ENGLAND


Home > Europe > United Kingdom > England
Elevation: 203 feet     Latitude: 51 09N     Longitude: 000 11W

WEATHER
 
SELECT A DAY
Number of Records: 299,385;   Date Range: 7/1/96 - 12/16/14
 
SHARE

PRINT THIS DATA

[ ← Previous Day ]
WEATHER ALMANAC - FEBRUARY 1, 2013
[ Next Day → ]
[ °C ]   °F
Weather ElementAverageHighLow
Temperature41.7 °F46.4 °F (12:50 am)35.6 °F (9:20 pm)
Dewpoint38 °F42.8 °F (2:50 am)33.8 °F (8:20 pm)
Humidity86.8 %93 % (5:20 am)76 % (3:50 am)
Barometer29.58 in29.86 in (12:50 am)29.47 in (3:20 pm)
Wind Speed5.9 mph11.5 mph (3:20 pm)
Weather ElementAverage
Visibility5.7 mi
Wind DirectionSSW (212.6 °)

Weather ElementTotal
Precipitation---
Heating Degree Days24 (Base 65)
Averaged from 47 records on February 1, 2013
WEATHER CONDITIONS BREAKOUT
WIND DIRECTION BREAKOUT
WEATHER BY HOUR - FEBRUARY 1, 2013
[ °C ]   °F
Local TimeTemperatureDewpointHumidityBarometerVisibilityWind DirectionWind SpeedGust SpeedPrecipitationEventsConditions
12:50 AM46.4 °F41.0 °F81 %29.86 in5.6 miWSW (240°)10.4 mph
1:20 AM46.4 °F41.0 °F81 %29.86 in5.6 miWSW (240°)8.1 mph
1:50 AM46.4 °F41.0 °F81 %29.83 in6.2 miSW (220°)6.9 mphPartly Cloudy
2:20 AM46.4 °F41.0 °F81 %29.83 in5.6 miSW (220°)5.8 mph
2:50 AM46.4 °F42.8 °F87 %29.80 in5.6 miSW (230°)6.9 mphScattered Clouds
3:20 AM46.4 °F42.8 °F87 %29.80 in5.0 miSW (230°)5.8 mphRainLight Rain
3:50 AM46.4 °F39.2 °F76 %29.77 in5.6 miWSW (240°)9.2 mphRainLight Rain
4:20 AM44.6 °F39.2 °F81 %29.74 in6.2 miSW (230°)8.1 mphRainLight Rain
4:50 AM44.6 °F41.0 °F87 %29.71 in6.2 miSW (220°)6.9 mphRainLight Rain
5:20 AM42.8 °F41.0 °F93 %29.71 in5.6 miSW (220°)5.8 mphRainLight Rain
5:50 AM42.8 °F39.2 °F87 %29.68 in6.2 miVariable3.5 mphRainLight Rain
6:20 AM42.8 °F39.2 °F87 %29.65 in5.0 miSW (220°)3.5 mphRainLight Rain
6:50 AM42.8 °F39.2 °F87 %29.62 in5.0 miVariable2.3 mphRainLight Rain
7:20 AM41.0 °F39.2 °F93 %29.62 in4.3 miCalmRainLight Rain
7:50 AM41.0 °F39.2 °F93 %29.59 in2.5 miCalmRainLight Rain
8:20 AM41.0 °F39.2 °F93 %29.59 in2.5 miNW (310°)4.6 mphRainLight Rain
8:50 AM41.0 °F39.2 °F93 %29.56 in3.1 miWest (280°)5.8 mphRainLight Rain
9:20 AM41.0 °F39.2 °F93 %29.56 in6.2 miWest (280°)3.5 mphRainLight Rain
9:50 AM41.0 °F39.2 °F93 %29.53 in6.2 miVariable3.5 mphRainLight Rain
10:20 AM41.0 °F39.2 °F93 %29.53 in6.2 miNW (310°)6.9 mphRainLight Rain
10:50 AM41.0 °F39.2 °F93 %29.53 in6.2 miNW (320°)10.4 mphRainLight Rain
11:20 AM41.0 °F37.4 °F87 %29.53 in6.2 miNW (320°)9.2 mphRainLight Rain
11:50 AM41.0 °F37.4 °F87 %29.50 in6.2 miNNW (340°)8.1 mphRainLight Rain
12:20 PM41.0 °F37.4 °F87 %29.50 in6.2 miNW (320°)9.2 mphRainLight Rain
12:50 PM42.8 °F39.2 °F87 %29.50 in6.2 miNW (310°)9.2 mphMostly Cloudy
1:20 PM42.8 °F39.2 °F87 %29.50 in6.2 miNW (310°)9.2 mphScattered Clouds
1:50 PM42.8 °F39.2 °F87 %29.50 in6.2 miNW (310°)9.2 mphMostly Cloudy
2:20 PM42.8 °F37.4 °F81 %29.50 in6.2 miNW (310°)8.1 mphScattered Clouds
2:50 PM44.6 °F37.4 °F76 %29.50 in6.2 miNW (320°)9.2 mphScattered Clouds
3:20 PM42.8 °F37.4 °F81 %29.47 in6.2 miNW (310°)11.5 mphPartly Cloudy
3:50 PM42.8 °F37.4 °F81 %29.50 in6.2 miNW (320°)6.9 mphPartly Cloudy
4:20 PM42.8 °F37.4 °F81 %29.50 in6.2 miWest (280°)6.9 mphPartly Cloudy
4:50 PM41.0 °F35.6 °F81 %29.47 in6.2 miWest (260°)8.1 mphPartly Cloudy
5:20 PM41.0 °F35.6 °F81 %29.47 inWSW (250°)5.8 mphClear
5:50 PM41.0 °F35.6 °F81 %29.47 inSW (230°)5.8 mphClear
6:20 PM41.0 °F35.6 °F81 %29.47 inSW (230°)3.5 mphClear
6:50 PM39.2 °F35.6 °F87 %29.47 inSSW (210°)4.6 mphClear
7:20 PM39.2 °F35.6 °F87 %29.50 inSSW (210°)4.6 mphClear
7:50 PM39.2 °F35.6 °F87 %29.50 inSW (230°)3.5 mphClear
8:20 PM37.4 °F33.8 °F87 %29.50 in6.2 miVariable2.3 mphPartly Cloudy
8:50 PM37.4 °F35.6 °F93 %29.50 in6.2 miVariable3.5 mphMostly Cloudy
9:20 PM35.6 °F33.8 °F93 %29.50 in6.2 miVariable2.3 mphMostly Cloudy
9:50 PM35.6 °F33.8 °F93 %29.53 in6.2 miCalmMostly Cloudy
10:20 PM37.4 °F35.6 °F93 %29.53 in6.2 miVariable2.3 mphMostly Cloudy
10:50 PM39.2 °F35.6 °F87 %29.56 in6.2 miWNW (290°)4.6 mphScattered Clouds
11:20 PM37.4 °F35.6 °F93 %29.56 in6.2 miNW (310°)4.6 mphPartly Cloudy
11:50 PM37.4 °F35.6 °F93 %29.59 in6.2 miNW (310°)5.8 mphPartly Cloudy
Hourly data recorded from EGKK, located miles away from London, England







STORIES FROM OUR PARTNERS